Torna al catalogo

STARLINK-5327

AttivoComunicazioniVLEO
NORAD 55291·PAYLOAD·🇺🇸 United States

Lanciato Jan 19, 2023 da Vandenberg Space Force Base

Loading…

Prossimi Passaggi (prossime 24 ore)

TLE

AggiornatoSource: CelesTrak SupGP

Epoca: Sep 14, 2026, 21:42 UTC

1 55291C 23010Y   26257.90465278  .00062227  00000+0  52153-2 0  2574
2 55291  69.9996 267.5098 0003113 268.9985 261.0844 14.98296172    19

Traccia STARLINK-5327 in tempo reale con AllMySat

Download on the App Store